| time (UTC) | temp C | wind direction | speed KPH | gust KPH | rain 1hr cm | rain 24hr cm | rain mn cm | humidity % | barometer mb |
| 20260506161515 | 14 | 278 | 1.6 | 6.4 | 0.23 | 0.58 | 0.58 | 92 | 1007.6 |
| 20260506160033 | 14 | 360 | 1.6 | 11.3 | 0.23 | 0.51 | 0.51 | 91 | 1008.0 |
| 20260506154530 | 15 | 251 | 3.2 | 8.0 | 0.20 | 0.43 | 0.43 | 91 | 1008.1 |
| 20260506153023 | 15 | 310 | 1.6 | 6.4 | 0.20 | 0.38 | 0.38 | 91 | 1008.0 |
| 20260506151515 | 15 | 263 | 1.6 | 6.4 | 0.23 | 0.36 | 0.36 | 91 | 1008.1 |
| 20260506150027 | 15 | 253 | 1.6 | 4.8 | 0.23 | 0.28 | 0.28 | 91 | 1008.2 |
| 20260506144523 | 15 | 219 | 0.0 | 3.2 | 0.23 | 0.23 | 0.23 | 90 | 1008.2 |
| 20260506143038 | 15 | 314 | 0.0 | 3.2 | 0.18 | 0.18 | 0.18 | 89 | 1008.3 |
| 20260506141526 | 15 | 197 | 0.0 | 1.6 | 0.13 | 0.13 | 0.13 | 89 | 1008.6 |
| 20260506140016 | 15 | 108 | 0.0 | 3.2 | 0.05 | 0.05 | 0.05 | 88 | 1008.7 |
| 20260506134521 | 15 | 349 | 0.0 | 3.2 | 0.00 | 0.00 | 0.00 | 86 | 1008.9 |
| 20260506133025 | 15 | 21 | 0.0 | 6.4 | 0.00 | 0.00 | 0.00 | 85 | 1008.8 |
| 20260506131527 | 15 | 360 | 0.0 | 4.8 | 0.00 | 0.00 | 0.00 | 85 | 1008.5 |
| 20260506130025 | 15 | 15 | 0.0 | 6.4 | 0.00 | 0.00 | 0.00 | 84 | 1008.3 |
| 20260506124516 | 16 | 19 | 3.2 | 6.4 | 0.00 | 0.00 | 0.00 | 82 | 1008.3 |
| 20260506123024 | 16 | 183 | 1.6 | 8.0 | 0.00 | 0.00 | 0.00 | 80 | 1008.5 |
| 20260506121527 | 16 | 352 | 0.0 | 4.8 | 0.00 | 0.00 | 0.00 | 78 | 1008.6 |
| 20260506120030 | 16 | 291 | 1.6 | 6.4 | 0.00 | 0.00 | 0.00 | 76 | 1008.6 |
| 20260506114519 | 16 | 249 | 4.8 | 12.9 | 0.00 | 0.00 | 0.00 | 75 | 1008.5 |
| 20260506113021 | 16 | 23 | 3.2 | 9.7 | 0.00 | 0.00 | 0.00 | 75 | 1008.6 |
| 20260506111503 | 16 | 267 | 3.2 | 6.4 | 0.00 | 0.00 | 0.00 | 75 | 1008.3 |
| 20260506110010 | 16 | 254 | 1.6 | 11.3 | 0.00 | 0.00 | 0.00 | 74 | 1008.2 |
| 20260506104514 | 16 | 25 | 0.0 | 11.3 | 0.00 | 0.00 | 0.00 | 73 | 1008.1 |
| 20260506103018 | 16 | 326 | 1.6 | 6.4 | 0.00 | 0.00 | 0.00 | 72 | 1008.0 |
| 20260506101505 | 16 | 346 | 0.0 | 8.0 | 0.00 | 0.00 | 0.00 | 71 | 1008.2 |
| 20260506100010 | 16 | 288 | 4.8 | 16.1 | 0.00 | 0.00 | 0.00 | 70 | 1008.1 |
| 20260506094518 | 16 | 348 | 0.0 | 8.0 | 0.00 | 0.00 | 0.00 | 69 | 1008.1 |
| 20260506093019 | 16 | 52 | 1.6 | 8.0 | 0.00 | 0.00 | 0.00 | 68 | 1008.0 |
| 20260506091525 | 16 | 38 | 1.6 | 9.7 | 0.00 | 0.00 | 0.00 | 68 | 1008.2 |
| 20260506090008 | 16 | 360 | 0.0 | 4.8 | 0.00 | 0.00 | 0.00 | 68 | 1008.2 |
| 20260506084519 | 16 | 273 | 0.0 | 6.4 | 0.00 | 0.00 | 0.00 | 67 | 1008.1 |
| 20260506083016 | 16 | 360 | 0.0 | 4.8 | 0.00 | 0.00 | 0.00 | 66 | 1008.2 |
| 20260506081522 | 16 | 5 | 1.6 | 4.8 | 0.00 | 0.00 | 0.00 | 65 | 1008.3 |
| 20260506073016 | 17 | 296 | 1.6 | 11.3 | 0.00 | 0.00 | 0.00 | 62 | 1008.4 |
| 20260506071522 | 17 | 263 | 0.0 | 3.2 | 0.00 | 0.00 | 0.00 | 61 | 1008.5 |
| 20260506061521 | 17 | 28 | 0.0 | 16.1 | 0.00 | 0.00 | 0.00 | 58 | 1009.0 |
| 20260506044508 | 17 | 51 | 0.0 | 4.8 | 0.00 | 0.00 | 0.00 | 60 | 1009.3 |
| 20260506043008 | 17 | 286 | 0.0 | 3.2 | 0.00 | 0.00 | 0.00 | 58 | 1009.3 |
| 20260506041522 | 18 | 253 | 1.6 | 3.2 | 0.00 | 0.00 | 0.00 | 56 | 1009.3 |
| 20260506040022 | 18 | 270 | 0.0 | 4.8 | 0.00 | 0.00 | 0.00 | 55 | 1009.2 |
| 20260506034523 | 18 | 5 | 0.0 | 6.4 | 0.00 | 0.00 | 0.00 | 52 | 1009.2 |
| 20260506033006 | 19 | 360 | 0.0 | 16.1 | 0.00 | 0.00 | 0.00 | 51 | 1009.2 |
| 20260506031519 | 20 | 55 | 1.6 | 9.7 | 0.00 | 0.00 | 0.00 | 49 | 1009.1 |
| 20260506030022 | 20 | 246 | 1.6 | 6.4 | 0.00 | 0.00 | 0.00 | 47 | 1009.2 |
| 20260506024520 | 20 | 228 | 1.6 | 8.0 | 0.00 | 0.00 | 0.00 | 46 | 1009.3 |
| 20260506023023 | 21 | 12 | 1.6 | 6.4 | 0.00 | 0.00 | 0.00 | 45 | 1009.2 |
| 20260506021511 | 21 | 311 | 0.0 | 6.4 | 0.00 | 0.00 | 0.00 | 45 | 1009.2 |
| 20260506020021 | 21 | 290 | 4.8 | 14.5 | 0.00 | 0.00 | 0.00 | 44 | 1009.2 |
| 20260506014522 | 21 | 44 | 0.0 | 4.8 | 0.00 | 0.00 | 0.00 | 45 | 1009.0 |
| 20260506013029 | 21 | 352 | 0.0 | 17.7 | 0.00 | 0.00 | 0.00 | 45 | 1008.8 |
| 20260506011527 | 21 | 84 | 3.2 | 16.1 | 0.00 | 0.00 | 0.00 | 44 | 1008.6 |
| 20260506010023 | 21 | 39 | 1.6 | 4.8 | 0.00 | 0.00 | 0.00 | 45 | 1008.6 |
| 20260506004523 | 21 | 208 | 0.0 | 12.9 | 0.00 | 0.00 | 0.00 | 45 | 1008.4 |
| 20260506003021 | 21 | 33 | 0.0 | 4.8 | 0.00 | 0.00 | 0.00 | 45 | 1008.3 |
| 20260506001527 | 22 | 301 | 3.2 | 9.7 | 0.00 | 0.00 | 0.00 | 44 | 1008.2 |
| 20260506000036 | 22 | 360 | 1.6 | 11.3 | 0.00 | 0.00 | 0.00 | 42 | 1008.2 |
| 20260505234517 | 22 | 11 | 0.0 | 6.4 | 0.00 | 0.00 | 0.00 | 42 | 1008.1 |
| 20260505233018 | 22 | 271 | 1.6 | 8.0 | 0.00 | 0.00 | 0.00 | 41 | 1008.1 |
| 20260505231522 | 22 | 276 | 4.8 | 9.7 | 0.00 | 0.00 | 0.00 | 41 | 1007.8 |
| 20260505230032 | 23 | 29 | 1.6 | 16.1 | 0.00 | 0.00 | 0.00 | 40 | 1007.6 |
| 20260505224512 | 23 | 9 | 3.2 | 19.3 | 0.00 | 0.00 | 0.00 | 39 | 1007.5 |
| 20260505223023 | 23 | 346 | 1.6 | 6.4 | 0.00 | 0.00 | 0.00 | 38 | 1007.4 |
| 20260505221504 | 23 | 284 | 0.0 | 11.3 | 0.00 | 0.00 | 0.00 | 36 | 1007.2 |
| 20260505220022 | 24 | 67 | 1.6 | 11.3 | 0.00 | 0.00 | 0.00 | 35 | 1007.2 |
| 20260505214514 | 24 | 263 | 3.2 | 19.3 | 0.00 | 0.00 | 0.00 | 33 | 1007.1 |
| 20260505213023 | 24 | 31 | 3.2 | 16.1 | 0.00 | 0.00 | 0.00 | 34 | 1006.8 |
| 20260505211503 | 25 | 288 | 4.8 | 14.5 | 0.00 | 0.00 | 0.00 | 33 | 1006.6 |
| 20260505210006 | 25 | 269 | 1.6 | 24.1 | 0.00 | 0.00 | 0.00 | 31 | 1006.6 |
| 20260505204516 | 26 | 360 | 3.2 | 29.0 | 0.00 | 0.00 | 0.00 | 31 | 1006.6 |
| 20260505203012 | 26 | 352 | 4.8 | 16.1 | 0.00 | 0.00 | 0.00 | 30 | 1006.6 |
| 20260505201533 | 27 | 255 | 6.4 | 25.7 | 0.00 | 0.00 | 0.00 | 29 | 1006.6 |
| 20260505200007 | 27 | 254 | 1.6 | 35.4 | 0.00 | 0.00 | 0.00 | 31 | 1006.7 |
| 20260505194509 | 27 | 350 | 4.8 | 14.5 | 0.00 | 0.00 | 0.00 | 30 | 1006.8 |
| 20260505193034 | 26 | 9 | 1.6 | 20.9 | 0.00 | 0.00 | 0.00 | 33 | 1007.2 |
| 20260505191514 | 27 | 270 | 6.4 | 17.7 | 0.00 | 0.00 | 0.00 | 33 | 1007.2 |
| 20260505190030 | 27 | 170 | 3.2 | 24.1 | 0.00 | 0.00 | 0.00 | 33 | 1007.1 |
| 20260505184504 | 27 | 150 | 4.8 | 17.7 | 0.00 | 0.00 | 0.00 | 32 | 1007.4 |
| 20260505183016 | 27 | 310 | 9.7 | 20.9 | 0.00 | 0.00 | 0.00 | 33 | 1007.7 |
| 20260505181518 | 26 | 263 | 3.2 | 24.1 | 0.00 | 0.00 | 0.00 | 36 | 1007.8 |
| 20260505180031 | 25 | 311 | 3.2 | 12.9 | 0.00 | 0.00 | 0.00 | 38 | 1008.0 |
| 20260505174530 | 26 | 360 | 3.2 | 17.7 | 0.00 | 0.00 | 0.00 | 35 | 1008.1 |
| 20260505173009 | 25 | 292 | 3.2 | 22.5 | 0.00 | 0.00 | 0.00 | 37 | 1008.0 |
| 20260505171525 | 26 | 9 | 3.2 | 12.9 | 0.00 | 0.00 | 0.00 | 38 | 1008.2 |
| 20260505170018 | 26 | 305 | 4.8 | 16.1 | 0.00 | 0.00 | 0.00 | 36 | 1008.2 |
| 20260505164532 | 26 | 340 | 4.8 | 16.1 | 0.00 | 0.00 | 0.00 | 37 | 1008.3 |
| 20260505163005 | 26 | 333 | 3.2 | 11.3 | 0.00 | 0.00 | 0.00 | 37 | 1008.7 |